TimeMST,TemperatureF,Dew PointF,Humidity,Sea Level PressureIn,VisibilityMPH,Wind Direction,Wind SpeedMPH,Gust SpeedMPH,PrecipitationIn,Events,Conditions,WindDirDegrees,DateUTC
12:15 AM,45.0,38.8,79,30.03,10.0,South,9.2,-,N/A,,Clear,170,2014-01-04 07:15:00
12:35 AM,45.5,39.2,79,30.02,10.0,South,9.2,18.4,N/A,,Clear,180,2014-01-04 07:35:00
12:55 AM,45.5,39.4,79,30.02,10.0,South,8.1,21.9,N/A,,Clear,180,2014-01-04 07:55:00
1:15 AM,45.5,39.6,80,30.02,10.0,South,5.8,16.1,N/A,,Clear,190,2014-01-04 08:15:00
1:35 AM,45.7,40.3,81,30.02,10.0,South,4.6,-,N/A,,Clear,180,2014-01-04 08:35:00
1:55 AM,46.4,41.0,81,30.01,10.0,SSW,3.5,-,N/A,,Clear,200,2014-01-04 08:55:00
2:15 AM,47.3,41.4,80,30.02,10.0,Calm,Calm,-,N/A,,Clear,0,2014-01-04 09:15:00
2:35 AM,47.1,41.2,80,30.01,10.0,SSW,3.5,-,N/A,,Scattered Clouds,210,2014-01-04 09:35:00
2:55 AM,47.5,41.9,81,30.01,10.0,Calm,Calm,-,N/A,,Mostly Cloudy,0,2014-01-04 09:55:00
3:15 AM,48.0,42.1,80,30.00,10.0,South,9.2,-,N/A,,Scattered Clouds,190,2014-01-04 10:15:00
3:35 AM,48.4,42.6,80,29.99,10.0,South,15.0,19.6,N/A,,Clear,180,2014-01-04 10:35:00
3:55 AM,49.3,43.2,79,29.98,10.0,South,8.1,17.3,N/A,,Clear,190,2014-01-04 10:55:00
4:15 AM,49.3,43.3,80,29.98,10.0,Calm,Calm,-,N/A,,Mostly Cloudy,0,2014-01-04 11:15:00
4:35 AM,49.3,43.9,82,29.98,10.0,West,4.6,-,N/A,,Mostly Cloudy,270,2014-01-04 11:35:00
4:55 AM,48.9,43.7,82,29.98,10.0,Calm,Calm,-,N/A,,Mostly Cloudy,0,2014-01-04 11:55:00
5:15 AM,50.4,44.4,80,29.98,10.0,Calm,Calm,-,N/A,,Overcast,0,2014-01-04 12:15:00
5:35 AM,50.5,44.6,80,29.98,10.0,SSW,4.6,-,N/A,,Mostly Cloudy,200,2014-01-04 12:35:00
5:55 AM,50.2,44.8,82,29.97,10.0,South,10.4,17.3,N/A,,Scattered Clouds,190,2014-01-04 12:55:00
6:15 AM,50.9,45.0,80,29.98,10.0,South,9.2,-,N/A,,Scattered Clouds,190,2014-01-04 13:15:00
6:35 AM,50.9,45.1,81,29.97,10.0,SSW,8.1,-,N/A,,Scattered Clouds,200,2014-01-04 13:35:00
6:55 AM,51.1,45.5,81,29.98,10.0,South,11.5,16.1,N/A,,Scattered Clouds,190,2014-01-04 13:55:00
7:15 AM,52.0,45.9,80,29.98,10.0,South,4.6,-,N/A,,Scattered Clouds,190,2014-01-04 14:15:00
7:35 AM,52.7,45.9,78,29.98,10.0,South,3.5,17.3,N/A,,Mostly Cloudy,180,2014-01-04 14:35:00
7:55 AM,54.3,47.1,77,29.99,10.0,SW,4.6,-,N/A,,Overcast,220,2014-01-04 14:55:00
8:15 AM,56.3,47.3,72,29.99,10.0,SSW,5.8,-,N/A,,Mostly Cloudy,200,2014-01-04 15:15:00
8:35 AM,58.1,47.3,67,29.99,10.0,SSW,5.8,-,N/A,,Mostly Cloudy,210,2014-01-04 15:35:00
8:55 AM,59.5,47.3,64,29.99,10.0,SSW,6.9,-,N/A,,Scattered Clouds,210,2014-01-04 15:55:00
9:15 AM,61.0,46.6,59,29.98,10.0,SSW,8.1,16.1,N/A,,Clear,210,2014-01-04 16:15:00
9:35 AM,62.1,46.0,56,29.98,10.0,SW,9.2,19.6,N/A,,Clear,220,2014-01-04 16:35:00
9:55 AM,63.7,45.9,52,29.98,10.0,SSW,11.5,21.9,N/A,,Clear,200,2014-01-04 16:55:00
10:15 AM,64.6,45.0,49,29.97,10.0,South,9.2,20.7,N/A,,Clear,190,2014-01-04 17:15:00
10:35 AM,66.2,44.2,45,29.95,10.0,South,5.8,17.3,N/A,,Clear,190,2014-01-04 17:35:00
10:55 AM,67.3,44.2,43,29.94,10.0,South,10.4,16.1,N/A,,Clear,190,2014-01-04 17:55:00
11:15 AM,67.8,43.9,42,29.92,10.0,South,13.8,18.4,N/A,,Clear,180,2014-01-04 18:15:00
11:35 AM,68.5,42.1,38,29.89,10.0,South,13.8,24.2,N/A,,Clear,190,2014-01-04 18:35:00
11:55 AM,69.3,42.6,38,29.88,10.0,SW,10.4,27.6,N/A,,Clear,220,2014-01-04 18:55:00
12:15 PM,69.8,42.8,38,29.86,10.0,South,12.7,21.9,N/A,,Clear,190,2014-01-04 19:15:00
12:35 PM,70.5,42.6,36,29.85,10.0,South,12.7,20.7,N/A,,Clear,190,2014-01-04 19:35:00
12:55 PM,70.7,43.2,37,29.84,10.0,South,13.8,18.4,N/A,,Clear,190,2014-01-04 19:55:00
1:15 PM,70.7,43.2,37,29.83,10.0,South,10.4,19.6,N/A,,Clear,190,2014-01-04 20:15:00
1:35 PM,70.2,43.2,38,29.82,10.0,South,9.2,21.9,N/A,,Clear,190,2014-01-04 20:35:00
1:55 PM,68.2,44.2,42,29.81,10.0,South,9.2,-,N/A,,Clear,180,2014-01-04 20:55:00
2:15 PM,69.6,44.2,40,29.80,10.0,South,8.1,-,N/A,,Clear,180,2014-01-04 21:15:00
2:35 PM,71.4,43.9,37,29.80,10.0,South,15.0,21.9,N/A,,Clear,190,2014-01-04 21:35:00
2:55 PM,69.8,43.9,39,29.80,10.0,South,9.2,19.6,N/A,,Clear,190,2014-01-04 21:55:00
3:15 PM,69.8,44.6,40,29.80,10.0,South,9.2,16.1,N/A,,Clear,170,2014-01-04 22:15:00
3:35 PM,69.3,44.8,41,29.80,10.0,South,10.4,-,N/A,,Clear,180,2014-01-04 22:35:00
3:55 PM,68.5,44.2,42,29.81,10.0,South,8.1,17.3,N/A,,Clear,190,2014-01-04 22:55:00
4:15 PM,67.6,45.0,44,29.81,10.0,South,6.9,-,N/A,,Clear,180,2014-01-04 23:15:00
4:35 PM,65.1,44.8,48,29.81,10.0,South,6.9,-,N/A,,Clear,180,2014-01-04 23:35:00
4:55 PM,63.9,44.8,50,29.81,10.0,South,5.8,-,N/A,,Clear,190,2014-01-04 23:55:00
5:15 PM,62.4,45.1,53,29.82,10.0,SSE,5.8,-,N/A,,Clear,160,2014-01-05 00:15:00
5:35 PM,61.7,45.5,55,29.82,10.0,Calm,Calm,-,N/A,,Clear,0,2014-01-05 00:35:00
5:55 PM,60.8,45.5,57,29.81,10.0,Calm,Calm,-,N/A,,Clear,0,2014-01-05 00:55:00
6:15 PM,61.0,45.5,57,29.81,10.0,SW,3.5,-,N/A,,Clear,220,2014-01-05 01:15:00
6:35 PM,61.3,45.7,56,29.80,10.0,South,10.4,-,N/A,,Clear,190,2014-01-05 01:35:00
6:55 PM,61.9,45.7,55,29.80,10.0,South,11.5,21.9,N/A,,Clear,190,2014-01-05 01:55:00
7:15 PM,61.3,45.7,56,29.80,10.0,South,11.5,18.4,N/A,,Clear,190,2014-01-05 02:15:00
7:35 PM,61.5,45.7,56,29.79,10.0,South,15.0,20.7,N/A,,Clear,190,2014-01-05 02:35:00
7:55 PM,61.7,45.7,56,29.79,10.0,South,12.7,20.7,N/A,,Clear,190,2014-01-05 02:55:00
8:15 PM,61.7,45.9,56,29.79,10.0,South,11.5,24.2,N/A,,Clear,190,2014-01-05 03:15:00
8:35 PM,61.7,45.9,56,29.79,10.0,South,12.7,21.9,N/A,,Clear,190,2014-01-05 03:35:00
8:55 PM,61.7,45.9,56,29.79,10.0,South,12.7,19.6,N/A,,Clear,190,2014-01-05 03:55:00
9:15 PM,61.3,45.7,56,29.78,10.0,South,11.5,19.6,N/A,,Clear,190,2014-01-05 04:15:00
9:35 PM,60.3,45.5,58,29.78,10.0,South,10.4,19.6,N/A,,Clear,190,2014-01-05 04:35:00
9:55 PM,60.8,45.5,57,29.78,10.0,South,10.4,20.7,N/A,,Clear,190,2014-01-05 04:55:00
10:15 PM,60.6,45.5,57,29.78,10.0,South,12.7,18.4,N/A,,Clear,180,2014-01-05 05:15:00
10:35 PM,59.9,45.5,59,29.77,10.0,SSW,8.1,17.3,N/A,,Clear,200,2014-01-05 05:35:00
10:55 PM,59.2,45.5,60,29.77,10.0,South,8.1,-,N/A,,Clear,180,2014-01-05 05:55:00
11:15 PM,59.4,46.0,61,29.77,10.0,South,6.9,19.6,N/A,,Clear,190,2014-01-05 06:15:00
11:35 PM,59.5,46.2,61,29.76,10.0,South,6.9,-,N/A,,Clear,190,2014-01-05 06:35:00
11:55 PM,59.9,46.8,62,29.75,10.0,South,12.7,20.7,N/A,,Clear,190,2014-01-05 06:55:00